Weather History for KGRD - December, 2012

Change the Weather History Date:

Saturday, December 1, 2012

  Actual Average (KAND) Record (KAND)
Temperature  
Mean Temperature 52 °F -  
Max Temperature 66 °F 56 °F 74 °F (1991)
Min Temperature 37 °F 37 °F 13 °F (1964)
Degree Days  
Heating Degree Days 14    
Growing Degree Days 2 (Base 50)    
Moisture  
Dew Point 44 °F    
Average Humidity 78    
Maximum Humidity 97    
Minimum Humidity 52    
Precipitation  
Precipitation 0.00 in - - ()
Sea Level Pressure  
Sea Level Pressure 30.36 in    
Wind  
Wind Speed 0 mph (ESE)    
Max Wind Speed 4 mph    
Max Gust Speed -    
Visibility 9 miles    
Events      
Averages and records for this station are not official NWS values.
T = Trace of Precipitation, MM = Missing Value Source: NWS Daily Summary

Daily Weather History Graph

Daily Weather History Graph

Search for Another Location

Airport or City:

Trip Planner

Search our weather history database for the weather conditions in past years. The results will help you decide how hot, cold, wet, or windy it might be!

Date:

Astronomy

Dec. 01, 2012 Rise Set
Actual Time 7:16 AM EST 5:18 PM EST
Civil Twilight 6:49 AM EST 5:46 PM EST
Nautical Twilight 6:18 AM EST 6:17 PM EST
Astronomical Twilight 5:48 AM EST 6:47 PM EST
Moon 8:05 PM EST (12/1) 9:30 AM EST (12/1)
Length of Visible Light 10h 56m
Length of Day
10h 01m
Waning Gibbous, 92% of the Moon is Illuminated
Dec 1
Waning Gibbous
Dec 6
Last Quarter
Dec 13
New
Dec 20
First Quarter
Dec 28
Full

Hourly Weather History & Observations

Time (EST) Temp. Dew Point Humidity Pressure Visibility Wind Dir Wind Speed Gust Speed Precip Events Conditions
1:56 AM 42.1 °F 39.0 °F 89% 30.32 in 10.0 mi Calm Calm - N/A   Clear
2:56 AM 39.0 °F 37.9 °F 96% 30.33 in 8.0 mi Calm Calm - N/A   Scattered Clouds
3:56 AM 37.9 °F 37.0 °F 97% 30.33 in 7.0 mi Calm Calm - N/A   Scattered Clouds
4:56 AM 37.0 °F 35.1 °F 93% 30.34 in 7.0 mi Calm Calm - N/A   Clear
5:56 AM 37.9 °F 37.0 °F 97% 30.35 in 6.0 mi Calm Calm - N/A   Partly Cloudy
6:56 AM 37.0 °F 36.0 °F 96% 30.37 in 6.0 mi Calm Calm - N/A   Clear
7:56 AM 37.0 °F 35.1 °F 93% 30.39 in 6.0 mi Calm Calm - N/A   Clear
9:56 AM 54.0 °F 46.9 °F 77% 30.42 in 10.0 mi NNE 3.5 mph - N/A   Clear
10:56 AM 57.9 °F 48.9 °F 72% 30.41 in 10.0 mi Calm Calm - N/A   Clear
11:56 AM 63.0 °F 50.0 °F 63% 30.39 in 10.0 mi Calm Calm - N/A   Clear
12:56 PM 63.0 °F 51.1 °F 65% 30.36 in 10.0 mi Calm Calm - N/A   Clear
1:56 PM 64.9 °F 51.1 °F 61% 30.34 in 10.0 mi Calm Calm - N/A   Clear
2:56 PM 66.9 °F 48.9 °F 52% 30.32 in 10.0 mi Calm Calm - N/A   Clear
3:56 PM 66.9 °F 48.9 °F 52% 30.33 in 10.0 mi SE 3.5 mph - N/A   Partly Cloudy
4:56 PM 64.0 °F 46.9 °F 54% 30.34 in 10.0 mi Calm Calm - N/A   Clear
5:56 PM 55.9 °F 46.0 °F 69% 30.35 in 10.0 mi Calm Calm - N/A   Clear
6:56 PM 55.9 °F 45.0 °F 67% 30.36 in 10.0 mi Calm Calm - N/A   Clear
7:56 PM 51.1 °F 45.0 °F 80% 30.36 in 10.0 mi Calm Calm - N/A   Clear
8:56 PM 51.1 °F 45.0 °F 80% 30.36 in 10.0 mi SE 3.5 mph - N/A   Clear
9:56 PM 48.0 °F 45.0 °F 89% 30.36 in 10.0 mi Calm Calm - N/A   Clear
10:56 PM 48.9 °F 45.0 °F 86% 30.36 in 10.0 mi Calm Calm - N/A   Clear
11:56 PM 51.1 °F 46.9 °F 86% 30.36 in 10.0 mi Calm Calm - N/A   Clear